Regional Weather Roundup
Issued by NWS Cleveland, OH

Home | Current Version | Previous Version | Graphics & Text | Print | Product List | Glossary On
Versions: 1 2 3 4 5 6 7 8 9 10 11 12 13 14 15 16 17 18 19 20 21 22 23 24 25 26 27 28 29 30 31 32 33 34 35 36 37 38 39 40 41 42 43 44 45 46 47 48 49 50
000
ASUS41 KCLE 231000
RWRCLE
OHIO REGIONAL WEATHER ROUNDUP
NATIONAL WEATHER SERVICE WILMINGTON, OH
500 AM EST THU NOV 23 2017

NOTE: "FAIR" INDICATES FEW OR NO CLOUDS BELOW 12,000 FEET WITH NO
SIGNIFICANT WEATHER AND/OR OBSTRUCTIONS TO VISIBILITY.

OHZ001>008-015>018-024>027-034-035-043-044-231100-
   NORTHWEST OHIO

CITY           SKY/WX    TMP DP  RH WIND       PRES   REMARKS
DEFIANCE       CLOUDY    29  24  82 SW5       30.16F WCI  24
FINDLAY        MOCLDY    30  23  75 SW7       30.16F WCI  23
TOLEDO EXPRESS CLOUDY    30  24  78 S5        30.15F WCI  25
TOLEDO EXEC    CLOUDY    30  23  75 S6        30.16F WCI  24
LIMA           CLOUDY    28  24  85 S6        30.16F WCI  22
$$

OHZ009>014-019>023-028>033-038-089-231100-
   NORTHEAST OHIO

CITY           SKY/WX    TMP DP  RH WIND       PRES   REMARKS
CLE-HOPKINS    CLOUDY    28  19  69 S6        30.19F WCI  22
CLE-LAKEFRONT  FAIR      29  18  63 S8        30.17F WCI  21
CUY CO. ARPT   NOT AVBL
LORAIN-ELYRIA  MOCLDY    26  17  68 SW6       30.17F WCI  19
ASHTABULA      CLOUDY    30  22  72 SW7       30.16F WCI  23
AKRON-CANTON   FAIR      25  17  72 CALM      30.16F
WOOSTER        NOT AVBL
MANSFIELD      MOCLDY    26  22  84 S5        30.15F WCI  20
YOUNGSTOWN     CLOUDY    27  20  75 W5        30.16S WCI  22
$$

OHZ042-051>053-060>062-070>072-077>081-231100-
  SOUTHWEST OHIO

CITY           SKY/WX    TMP DP  RH WIND       PRES   REMARKS
CINC-COVINGTON MOCLDY    24  23  96 CALM      30.18F
CINC-LUNKEN    FAIR      23  22  96 CALM      30.22F FOG
HAMILTON       FAIR      23  21  92 CALM      30.21F
DAYTON         NOT AVBL
WRIGHT-PAT AFB FAIR      23  20  87 CALM      30.19S
DAYTON GENERAL FAIR      24  21  88 CALM      30.17F
WILMINGTON     FAIR      21  21 100 CALM      30.18F
$$

OHZ036-037-039>041-045>050-054>059-063>069-073>076-082>088-231100-
  CENTRAL AND SOUTHEAST OHIO

CITY           SKY/WX    TMP DP  RH WIND       PRES   REMARKS
COLUMBUS       MOCLDY    24  22  91 CALM      30.19F
OSU AIRPORT    FAIR      25  23  92 CALM      30.18F
BOLTON FIELD   FAIR      21  20  96 CALM      30.19F
RICKENBACK AFB NOT AVBL
NEWARK         FAIR      22  18  85 CALM      30.19S
MARION         MOCLDY    25  21  85 S5        30.17F WCI  19
LANCASTER      FAIR      20  17  88 CALM      30.19F
ZANESVILLE     FAIR      22  18  85 CALM      30.18F
NEW PHILLY     FAIR      23  20  88 CALM      30.19F
$$




USA.gov is the U.S. government's official web portal to all federal, state and local government web resources and services.